Location: Demre
(36.2444°N, 29.9850°E)
Time: 04:21:57
(UTC+00:00)

Cosmos 407 Rocket - Pass Details

Date: 11 March 2026
Orbit: 739 x 781 km, 74.1° (Epoch: 21 April)

Event Time Altitude Azimuth Distance (km) Brightness Sun altitude
Rises 18:09:41 0° 207° (SSW) 3,237 6.9 -25.9°
Reaches altitude 10° 18:12:06 10° 212° (SSW) 2,318 6.1 -26.4°
Maximum altitude 18:17:16 56° 290° (WNW) 925 4.1 -27.4°
Drops below altitude 10° 18:22:30 10° 9° (N) 2,340 6.1 -28.4°
Sets 18:24:57 0° 13° (NNE) 3,271 6.8 -28.9°
